Flag for Norway Weather past 2 weeks in Stavanger, Norway

Now
50 °F

Drizzle. Fog.


Feels Like: 46 °F
Forecast: 42 / 49 °F
Wind: 12 mph from Southwest

Location: Stavanger / Sola

Current Time: May 22, 2015 at 10:32:40 AM

Latest Report: May 22, 2015 at 9:50 AM


Visibility: 1 mi

Pressure: 29.98 "Hg

Humidity: 100%

Dew point: 50 °F

Location of StavangerLocation

Historic Weather in Stavanger — Graph

°F

Stavanger temperature yesterday

Maximum temperature yesterday: 52 °F (at 1:20 PM)
Minimum temperature yesterday: 41 °F (at 3:50 AM)
Average temperature yesterday: 48 °F

Past Weeks' High & Low Weather Summary

 TemperatureHumidityPressure
High54 °F (May 12, 2:20 PM)100% (May 11, 5:20 PM)30.15 "Hg (May 11, 5:20 PM)
Low36 °F (May 9, 3:50 AM)40% (May 9, 11:20 AM)29.24 "Hg (May 19, 5:50 AM)
Average47 °F79%29.83 "Hg
* Reported May 7 9:20 AM — May 22 9:20 AM, Stavanger, Weather by CustomWeather, © 2015

Note: Actual official high and low records may vary slightly from our data, if they occured in-between our weather recording intervals... More about our weather records

Advertising

Stavanger weather history for previous 24 hours

 ConditionsComfort  
Time TempWeatherWind HumidityBarometerVisibility
9:20 AM
Fri, May 22
50 °FDrizzle. Fog.10 mph100%29.95 "Hg2 mi
8:50 AM50 °FDrizzle. Fog.9 mph100%29.95 "Hg1 mi
8:20 AM50 °FDrizzle. Fog.10 mph94%29.95 "Hg2 mi
7:50 AM50 °FDrizzle. Partly sunny.13 mph94%29.95 "Hg6 mi
7:20 AM50 °FDrizzle. Low clouds.13 mph94%29.98 "Hg2 mi
6:50 AM48 °FDrizzle. Partly sunny.15 mph100%29.95 "Hg2 mi
6:20 AM48 °FDrizzle. Fog.14 mph100%29.98 "Hg3 mi
5:50 AM48 °FDrizzle. Fog.14 mph100%29.98 "Hg2 mi
4:50 AM48 °FDrizzle. Fog.14 mph100%30.01 "Hg2 mi
3:50 AM48 °FDrizzle. Fog.13 mph94%30.01 "Hg3 mi
2:50 AM48 °FPassing clouds.13 mph94%30.04 "Hg4 mi
1:50 AM48 °FPassing clouds.13 mph94%30.04 "Hg4 mi
12:50 AM48 °FDrizzle. Fog.12 mph94%30.07 "Hg3 mi
12:20 AM48 °FPassing clouds.12 mph94%30.07 "HgN/A
11:50 PM
Thu, May 21
48 °FPassing clouds.12 mph94%30.07 "Hg6 mi
11:20 PM48 °FPassing clouds.10 mph94%30.07 "HgN/A
10:50 PM48 °FDrizzle. Broken clouds.9 mph94%30.07 "Hg5 mi
10:20 PM48 °FDrizzle. Broken clouds.9 mph94%30.07 "Hg5 mi
9:50 PM48 °FDrizzle. Broken clouds.8 mph94%30.07 "HgN/A
9:20 PM48 °FDrizzle. Broken clouds.9 mph94%30.07 "HgN/A
8:50 PM48 °FLight rain. Broken clouds.10 mph94%30.07 "HgN/A
8:20 PM48 °FLight rain. Broken clouds.12 mph87%30.07 "HgN/A
7:50 PM50 °FLight rain. Broken clouds.13 mph82%30.07 "HgN/A
7:20 PM50 °FLight rain. Broken clouds.10 mph88%30.07 "HgN/A
6:50 PM50 °FLight rain. Partly sunny.10 mph82%30.07 "HgN/A
6:20 PM50 °FLight rain. Broken clouds.10 mph76%30.07 "HgN/A
5:50 PM50 °FLight rain. Broken clouds.12 mph82%30.07 "HgN/A
5:20 PM50 °FBroken clouds.12 mph76%30.07 "HgN/A
4:50 PM52 °FBroken clouds.10 mph77%30.07 "HgN/A
4:20 PM50 °FBroken clouds.10 mph76%30.07 "HgN/A
3:50 PM52 °FBroken clouds.9 mph77%30.07 "HgN/A
3:20 PM50 °FLight rain. Broken clouds.12 mph82%30.07 "HgN/A
2:50 PM50 °FLight rain. Broken clouds.13 mph88%30.07 "HgN/A
2:20 PM52 °FBroken clouds.10 mph77%30.07 "HgN/A
1:50 PM52 °FBroken clouds.9 mph72%30.04 "HgN/A
1:20 PM52 °FBroken clouds.12 mph77%30.04 "HgN/A
12:50 PM50 °FBroken clouds.9 mph82%30.04 "HgN/A
11:50 AM50 °FBroken clouds.8 mph82%30.04 "HgN/A
11:20 AM50 °FBroken clouds.6 mph76%30.04 "HgN/A
10:50 AM50 °FPartly sunny.6 mph76%30.04 "HgN/A
10:20 AM50 °FPartly sunny.5 mph76%30.04 "HgN/A
Weather by CustomWeather, © 2015

See weather overviewHow to use our weather pages